QPF
0.01 0.01 0.01 0.01 0.01 0.01 0.01 0.02 0.02 0.02 0.02 0.02 0.03 0.07 0.08 0.08 0.09 0.09 0.09 0.08 0.06 0.06 0.08 0.09 0.09 0.09 0.08 0.06 0.03 0.06 0.09 0.06 0.03 0.07 0.09 0.04 0.01 0.00 0.00 0.00 0.00 0.00 0.00
0.00 0.00 0.00 0.00 0.01 0.01 0.01 0.02 0.02 0.03 0.05 0.08 0.11 0.13 0.13 0.14 0.15 0.14 0.15 0.14 0.14 0.15 0.13 0.15 0.16 0.16 0.14 0.11 0.08 0.14 0.17 0.11 0.07 0.13 0.16 0.11 0.07 0.03 0.00 0.00 0.00 0.00 0.00
0.00 0.00 0.00 0.00 0.00 0.00 0.00 0.00 0.01 0.01 0.03 0.08 0.13 0.18 0.24 0.31 0.35 0.31 0.27 0.23 0.20 0.20 0.16 0.13 0.17 0.19 0.19 0.18 0.16 0.15 0.16 0.16 0.13 0.11 0.14 0.13 0.14 0.12 0.03 0.00 0.00 0.00 0.00
0.00 0.00 0.00 0.00 0.00 0.00 0.01 0.00 0.00 0.02 0.04 0.06 0.13 0.21 0.31 0.38 0.38 0.36 0.34 0.30 0.27 0.23 0.18 0.16 0.16 0.17 0.19 0.18 0.14 0.11 0.15 0.17 0.14 0.13 0.11 0.07 0.09 0.13 0.10 0.04 0.01 0.01 0.01
0.00 0.00 0.00 0.00 0.00 0.01 0.01 0.01 0.01 0.02 0.05 0.09 0.17 0.27 0.35 0.41 0.43 0.42 0.39 0.32 0.26 0.24 0.22 0.21 0.20 0.19 0.19 0.16 0.12 0.11 0.14 0.15 0.16 0.16 0.13 0.11 0.11 0.08 0.13 0.12 0.06 0.04 0.02
0.00 0.00 0.00 0.01 0.01 0.01 0.01 0.02 0.02 0.03 0.05 0.10 0.17 0.24 0.32 0.43 0.50 0.50 0.44 0.37 0.27 0.20 0.19 0.17 0.17 0.16 0.17 0.16 0.16 0.13 0.12 0.12 0.13 0.14 0.14 0.12 0.10 0.12 0.16 0.14 0.11 0.08 0.04
0.01 0.01 0.01 0.02 0.02 0.02 0.02 0.03 0.03 0.04 0.06 0.08 0.15 0.22 0.26 0.31 0.40 0.44 0.46 0.42 0.35 0.28 0.19 0.14 0.13 0.13 0.13 0.10 0.10 0.10 0.09 0.10 0.11 0.11 0.11 0.13 0.12 0.16 0.17 0.15 0.14 0.14 0.05
0.01 0.01 0.03 0.04 0.04 0.03 0.04 0.04 0.06 0.07 0.09 0.11 0.15 0.20 0.22 0.23 0.26 0.29 0.31 0.30 0.27 0.22 0.16 0.11 0.10 0.11 0.09 0.07 0.06 0.07 0.06 0.06 0.06 0.05 0.07 0.07 0.10 0.12 0.14 0.15 0.18 0.17 0.13
0.04 0.05 0.07 0.07 0.07 0.07 0.07 0.08 0.10 0.11 0.10 0.13 0.16 0.18 0.20 0.20 0.20 0.19 0.18 0.16 0.14 0.13 0.11 0.09 0.08 0.07 0.05 0.04 0.04 0.05 0.04 0.04 0.04 0.04 0.04 0.04 0.06 0.08 0.10 0.13 0.15 0.16 0.14
0.06 0.08 0.09 0.10 0.12 0.14 0.12 0.11 0.13 0.13 0.13 0.14 0.12 0.13 0.13 0.13 0.13 0.13 0.14 0.13 0.13 0.11 0.07 0.05 0.04 0.04 0.03 0.02 0.03 0.02 0.02 0.02 0.02 0.03 0.03 0.04 0.05 0.06 0.08 0.09 0.13 0.16 0.14
0.10 0.10 0.12 0.12 0.14 0.17 0.16 0.15 0.15 0.14 0.12 0.10 0.09 0.10 0.11 0.12 0.12 0.12 0.12 0.12 0.11 0.09 0.05 0.04 0.03 0.02 0.02 0.01 0.02 0.01 0.01 0.01 0.01 0.01 0.02 0.03 0.04 0.05 0.06 0.08 0.10 0.13 0.14
0.21 0.23 0.21 0.19 0.19 0.18 0.15 0.17 0.19 0.18 0.18 0.15 0.15 0.16 0.16 0.17 0.21 0.18 0.14 0.14 0.12 0.09 0.08 0.06 0.03 0.01 0.01 0.00 0.01 0.01 0.01 0.01 0.01 0.01 0.01 0.02 0.03 0.04 0.06 0.08 0.09 0.10 0.11
0.20 0.22 0.21 0.22 0.23 0.21 0.18 0.20 0.20 0.18 0.19 0.21 0.22 0.23 0.22 0.20 0.19 0.16 0.14 0.15 0.12 0.07 0.06 0.04 0.03 0.02 0.01 0.01 0.01 0.01 0.00 0.00 0.00 0.01 0.01 0.02 0.03 0.04 0.06 0.06 0.08 0.09 0.11
0.13 0.13 0.13 0.15 0.16 0.18 0.22 0.22 0.23 0.21 0.22 0.21 0.20 0.22 0.22 0.20 0.16 0.12 0.11 0.10 0.09 0.08 0.07 0.04 0.03 0.03 0.03 0.02 0.02 0.01 0.01 0.00 0.00 0.00 0.00 0.01 0.02 0.03 0.05 0.06 0.08 0.10 0.12
0.08 0.09 0.07 0.06 0.07 0.09 0.13 0.16 0.17 0.14 0.14 0.14 0.13 0.15 0.16 0.15 0.13 0.12 0.09 0.07 0.05 0.05 0.05 0.05 0.05 0.04 0.04 0.05 0.04 0.02 0.01 0.01 0.01 0.01 0.01 0.01 0.01 0.01 0.02 0.03 0.06 0.08 0.11
0.03 0.03 0.02 0.01 0.02 0.02 0.03 0.05 0.04 0.04 0.05 0.05 0.04 0.05 0.08 0.08 0.07 0.07 0.05 0.03 0.03 0.03 0.04 0.05 0.05 0.07 0.05 0.08 0.06 0.04 0.02 0.01 0.01 0.01 0.01 0.01 0.01 0.00 0.00 0.00 0.01 0.03 0.06
0.00 0.00 0.00 0.00 0.00 0.00 0.00 0.00 0.01 0.01 0.01 0.01 0.01 0.01 0.01 0.03 0.04 0.03 0.03 0.04 0.04 0.03 0.04 0.05 0.07 0.09 0.09 0.07 0.03 0.02 0.02 0.02 0.02 0.02 0.03 0.02 0.02 0.01 0.01 0.02 0.02 0.01 0.01
0.00 0.00 0.00 0.00 0.00 0.00 0.00 0.00 0.00 0.00 0.00 0.00 0.00 0.00 0.01 0.01 0.01 0.01 0.02 0.02 0.03 0.03 0.04 0.04 0.05 0.05 0.07 0.05 0.02 0.02 0.03 0.05 0.04 0.03 0.03 0.04 0.05 0.05 0.05 0.04 0.04 0.04 0.03
0.00 0.00 0.00 0.00 0.00 0.00 0.00 0.00 0.00 0.00 0.00 0.00 0.00 0.00 0.00 0.00 0.00 0.01 0.01 0.01 0.01 0.02 0.03 0.02 0.02 0.02 0.03 0.03 0.01 0.02 0.06 0.08 0.07 0.04 0.06 0.07 0.07 0.12 0.08 0.04 0.06 0.07 0.05
0.00 0.00 0.00 0.00 0.00 0.00 0.00 0.00 0.00 0.00 0.00 0.00 0.00 0.00 0.00 0.00 0.00 0.00 0.01 0.01 0.01 0.02 0.02 0.02 0.02 0.01 0.01 0.02 0.01 0.02 0.07 0.09 0.10 0.09 0.08 0.12 0.11 0.12 0.07 0.04 0.08 0.11 0.08
0.00 0.00 0.00 0.00 0.00 0.00 0.00 0.00 0.00 0.00 0.00 0.00 0.00 0.00 0.00 0.00 0.00 0.00 0.01 0.01 0.01 0.01 0.01 0.01 0.01 0.01 0.00 0.00 0.00 0.02 0.06 0.10 0.13 0.14 0.13 0.11 0.11 0.06 0.04 0.04 0.05 0.08 0.06
0.00 0.00 0.00 0.00 0.00 0.00 0.00 0.00 0.00 0.00 0.00 0.00 0.01 0.00 0.00 0.00 0.00 0.00 0.00 0.01 0.01 0.01 0.01 0.01 0.01 0.01 0.01 0.00 0.00 0.01 0.02 0.07 0.12 0.13 0.10 0.08 0.07 0.03 0.02 0.02 0.03 0.05 0.04
0.00 0.00 0.00 0.00 0.00 0.00 0.00 0.00 0.00 0.00 0.00 0.00 0.00 0.00 0.00 0.00 0.00 0.00 0.00 0.00 0.01 0.01 0.01 0.01 0.01 0.00 0.00 0.00 0.01 0.02 0.02 0.04 0.06 0.06 0.07 0.06 0.04 0.03 0.03 0.02 0.03 0.05 0.07
0.00 0.00 0.00 0.00 0.00 0.00 0.00 0.00 0.00 0.00 0.00 0.00 0.00 0.00 0.00 0.00 0.00 0.00 0.00 0.00 0.00 0.00 0.00 0.01 0.01 0.01 0.01 0.01 0.02 0.03 0.04 0.04 0.05 0.05 0.05 0.04 0.03 0.05 0.06 0.06 0.06 0.04 0.04
0.00 0.00 0.00 0.00 0.00 0.00 0.00 0.00 0.00 0.00 0.00 0.00 0.00 0.00 0.00 0.00 0.01 0.00 0.00 0.00 0.00 0.00 0.00 0.00 0.01 0.00 0.01 0.00 0.01 0.01 0.01 0.02 0.03 0.07 0.07 0.07 0.06 0.06 0.06 0.06 0.05 0.05 0.05
0.00 0.00 0.00 0.00 0.00 0.00 0.00 0.00 0.00 0.00 0.00 0.00 0.00 0.00 0.00 0.00 0.01 0.01 0.00 0.00 0.00 0.00 0.00 0.00 0.00 0.00 0.00 0.00 0.00 0.00 0.00 0.01 0.03 0.06 0.06 0.06 0.07 0.06 0.06 0.06 0.04 0.03 0.04
MSLP
1009.37 1009.30 1009.32 1009.37 1009.39 1009.33 1009.16 1008.91 1008.61 1008.32 1008.11 1008.05 1008.15 1008.44 1008.87 1009.40 1009.97 1010.52 1011.02 1011.45 1011.81 1012.13 1012.45 1012.81 1013.21 1013.68 1014.19 1014.72 1015.24 1015.71 1016.10 1016.38 1016.57 1016.67 1016.68 1016.64 1016.56 1016.45 1016.34 1016.24 1016.16 1016.12 1016.12
1010.20 1010.09 1010.07 1010.09 1010.08 1009.97 1009.75 1009.41 1009.00 1008.59 1008.25 1008.05 1008.04 1008.23 1008.60 1009.10 1009.69 1010.29 1010.85 1011.36 1011.80 1012.20 1012.58 1012.97 1013.39 1013.85 1014.34 1014.85 1015.35 1015.80 1016.18 1016.48 1016.68 1016.80 1016.83 1016.81 1016.73 1016.62 1016.49 1016.36 1016.24 1016.14 1016.08
1011.15 1010.95 1010.86 1010.83 1010.77 1010.61 1010.33 1009.93 1009.44 1008.93 1008.48 1008.17 1008.06 1008.15 1008.46 1008.93 1009.51 1010.13 1010.75 1011.32 1011.84 1012.29 1012.71 1013.12 1013.53 1013.97 1014.42 1014.87 1015.32 1015.73 1016.08 1016.37 1016.58 1016.73 1016.80 1016.82 1016.79 1016.73 1016.62 1016.51 1016.38 1016.26 1016.16
1012.21 1011.89 1011.69 1011.57 1011.44 1011.23 1010.90 1010.45 1009.91 1009.33 1008.81 1008.42 1008.22 1008.24 1008.47 1008.90 1009.46 1010.09 1010.73 1011.33 1011.89 1012.38 1012.82 1013.22 1013.61 1013.99 1014.37 1014.76 1015.13 1015.48 1015.80 1016.07 1016.29 1016.47 1016.60 1016.69 1016.73 1016.74 1016.70 1016.63 1016.53 1016.42 1016.30
1013.34 1012.88 1012.56 1012.32 1012.11 1011.84 1011.47 1010.98 1010.41 1009.81 1009.25 1008.80 1008.54 1008.49 1008.66 1009.03 1009.55 1010.15 1010.78 1011.39 1011.94 1012.43 1012.86 1013.24 1013.58 1013.90 1014.22 1014.52 1014.82 1015.11 1015.37 1015.62 1015.85 1016.06 1016.25 1016.41 1016.54 1016.64 1016.69 1016.69 1016.64 1016.55 1016.43
1014.53 1013.91 1013.45 1013.10 1012.79 1012.46 1012.05 1011.55 1010.97 1010.36 1009.78 1009.32 1009.02 1008.92 1009.03 1009.33 1009.78 1010.32 1010.90 1011.47 1011.99 1012.44 1012.84 1013.17 1013.45 1013.71 1013.96 1014.19 1014.42 1014.65 1014.87 1015.10 1015.33 1015.56 1015.80 1016.02 1016.23 1016.41 1016.55 1016.63 1016.64 1016.59 1016.49
1015.70 1014.95 1014.36 1013.90 1013.50 1013.11 1012.67 1012.16 1011.59 1010.99 1010.42 1009.95 1009.63 1009.49 1009.53 1009.76 1010.13 1010.58 1011.07 1011.56 1012.01 1012.40 1012.73 1013.00 1013.23 1013.44 1013.62 1013.80 1013.98 1014.16 1014.35 1014.56 1014.79 1015.03 1015.29 1015.56 1015.82 1016.07 1016.27 1016.42 1016.50 1016.49 1016.42
1016.79 1015.94 1015.25 1014.70 1014.23 1013.78 1013.32 1012.81 1012.25 1011.67 1011.13 1010.67 1010.34 1010.16 1010.15 1010.29 1010.55 1010.89 1011.27 1011.65 1012.00 1012.30 1012.55 1012.76 1012.94 1013.10 1013.25 1013.39 1013.54 1013.70 1013.87 1014.07 1014.28 1014.52 1014.78 1015.07 1015.36 1015.64 1015.89 1016.09 1016.21 1016.26 1016.22
1017.72 1016.80 1016.05 1015.44 1014.92 1014.44 1013.96 1013.45 1012.92 1012.37 1011.86 1011.42 1011.08 1010.87 1010.80 1010.86 1011.01 1011.23 1011.48 1011.73 1011.96 1012.16 1012.33 1012.48 1012.61 1012.74 1012.87 1013.01 1013.15 1013.31 1013.47 1013.65 1013.85 1014.07 1014.32 1014.59 1014.88 1015.17 1015.44 1015.66 1015.83 1015.92 1015.92
1018.40 1017.48 1016.71 1016.08 1015.53 1015.04 1014.55 1014.05 1013.54 1013.03 1012.55 1012.13 1011.80 1011.57 1011.45 1011.43 1011.47 1011.56 1011.68 1011.79 1011.90 1012.00 1012.08 1012.17 1012.28 1012.39 1012.52 1012.67 1012.83 1012.99 1013.16 1013.34 1013.52 1013.72 1013.94 1014.18 1014.44 1014.71 1014.97 1015.21 1015.40 1015.53 1015.59
1018.80 1017.92 1017.18 1016.55 1016.01 1015.51 1015.04 1014.56 1014.08 1013.61 1013.16 1012.77 1012.45 1012.21 1012.05 1011.96 1011.91 1011.89 1011.88 1011.87 1011.86 1011.85 1011.87 1011.91 1011.98 1012.09 1012.23 1012.40 1012.58 1012.76 1012.95 1013.12 1013.29 1013.47 1013.65 1013.85 1014.07 1014.31 1014.56 1014.80 1015.01 1015.17 1015.28
1018.92 1018.12 1017.43 1016.84 1016.32 1015.85 1015.39 1014.94 1014.49 1014.06 1013.66 1013.31 1013.01 1012.77 1012.59 1012.44 1012.32 1012.20 1012.09 1011.98 1011.87 1011.78 1011.73 1011.72 1011.77 1011.87 1012.02 1012.21 1012.41 1012.62 1012.81 1012.99 1013.15 1013.30 1013.45 1013.61 1013.80 1014.00 1014.23 1014.46 1014.69 1014.88 1015.04
1018.82 1018.11 1017.49 1016.96 1016.48 1016.04 1015.61 1015.19 1014.79 1014.41 1014.06 1013.75 1013.49 1013.27 1013.08 1012.90 1012.73 1012.55 1012.35 1012.16 1011.97 1011.81 1011.70 1011.66 1011.68 1011.77 1011.92 1012.11 1012.32 1012.54 1012.74 1012.91 1013.06 1013.19 1013.32 1013.45 1013.61 1013.78 1013.99 1014.22 1014.45 1014.67 1014.87
1018.57 1017.96 1017.43 1016.96 1016.53 1016.13 1015.73 1015.36 1015.00 1014.67 1014.38 1014.13 1013.91 1013.72 1013.54 1013.36 1013.16 1012.94 1012.70 1012.45 1012.21 1011.99 1011.84 1011.75 1011.74 1011.81 1011.94 1012.12 1012.32 1012.53 1012.71 1012.88 1013.02 1013.13 1013.24 1013.35 1013.48 1013.64 1013.83 1014.05 1014.29 1014.53 1014.75
1018.29 1017.78 1017.32 1016.91 1016.53 1016.16 1015.81 1015.48 1015.17 1014.90 1014.67 1014.48 1014.32 1014.17 1014.02 1013.85 1013.65 1013.41 1013.14 1012.86 1012.58 1012.33 1012.13 1012.01 1011.97 1011.99 1012.09 1012.23 1012.40 1012.57 1012.74 1012.88 1013.00 1013.10 1013.19 1013.29 1013.40 1013.55 1013.72 1013.93 1014.16 1014.40 1014.64
1018.06 1017.63 1017.24 1016.88 1016.53 1016.20 1015.89 1015.60 1015.35 1015.14 1014.98 1014.85 1014.74 1014.65 1014.53 1014.39 1014.20 1013.97 1013.69 1013.39 1013.10 1012.82 1012.60 1012.44 1012.35 1012.33 1012.37 1012.46 1012.57 1012.70 1012.81 1012.92 1013.01 1013.09 1013.16 1013.25 1013.35 1013.48 1013.64 1013.82 1014.04 1014.27 1014.50
1017.95 1017.58 1017.24 1016.91 1016.59 1016.29 1016.01 1015.77 1015.57 1015.42 1015.32 1015.25 1015.21 1015.16 1015.09 1014.97 1014.80 1014.58 1014.32 1014.02 1013.72 1013.44 1013.19 1013.00 1012.87 1012.80 1012.78 1012.80 1012.84 1012.89 1012.95 1013.01 1013.06 1013.11 1013.16 1013.23 1013.32 1013.43 1013.56 1013.73 1013.91 1014.11 1014.31
1017.98 1017.65 1017.33 1017.02 1016.72 1016.43 1016.18 1015.98 1015.83 1015.74 1015.69 1015.69 1015.69 1015.69 1015.65 1015.57 1015.43 1015.23 1014.98 1014.70 1014.41 1014.13 1013.88 1013.67 1013.50 1013.37 1013.29 1013.23 1013.20 1013.18 1013.16 1013.16 1013.16 1013.17 1013.20 1013.25 1013.32 1013.41 1013.52 1013.65 1013.79 1013.95 1014.11
1018.13 1017.82 1017.51 1017.19 1016.89 1016.62 1016.39 1016.21 1016.11 1016.06 1016.07 1016.12 1016.17 1016.21 1016.21 1016.16 1016.04 1015.87 1015.65 1015.39 1015.12 1014.85 1014.60 1014.38 1014.18 1014.02 1013.87 1013.75 1013.64 1013.54 1013.45 1013.39 1013.34 1013.31 1013.31 1013.33 1013.38 1013.44 1013.52 1013.62 1013.72 1013.83 1013.95
1018.35 1018.04 1017.71 1017.38 1017.07 1016.80 1016.58 1016.44 1016.37 1016.37 1016.42 1016.51 1016.60 1016.68 1016.71 1016.68 1016.60 1016.45 1016.26 1016.04 1015.79 1015.55 1015.32 1015.09 1014.89 1014.69 1014.51 1014.32 1014.15 1013.98 1013.83 1013.70 1013.60 1013.53 1013.50 1013.50 1013.52 1013.57 1013.62 1013.69 1013.75 1013.82 1013.90
1018.57 1018.25 1017.90 1017.55 1017.22 1016.94 1016.73 1016.61 1016.57 1016.61 1016.70 1016.82 1016.95 1017.06 1017.12 1017.13 1017.07 1016.96 1016.80 1016.61 1016.41 1016.20 1015.99 1015.79 1015.58 1015.37 1015.16 1014.94 1014.71 1014.49 1014.28 1014.09 1013.95 1013.84 1013.78 1013.76 1013.77 1013.81 1013.85 1013.89 1013.93 1013.97 1014.01
1018.75 1018.40 1018.02 1017.65 1017.31 1017.02 1016.82 1016.71 1016.70 1016.76 1016.89 1017.05 1017.21 1017.35 1017.45 1017.48 1017.46 1017.38 1017.27 1017.12 1016.96 1016.79 1016.62 1016.44 1016.25 1016.04 1015.81 1015.57 1015.31 1015.04 1014.79 1014.57 1014.38 1014.25 1014.17 1014.14 1014.14 1014.17 1014.21 1014.24 1014.27 1014.29 1014.31
1018.85 1018.48 1018.08 1017.68 1017.32 1017.03 1016.83 1016.74 1016.75 1016.84 1017.00 1017.19 1017.39 1017.56 1017.69 1017.76 1017.77 1017.73 1017.66 1017.56 1017.45 1017.32 1017.19 1017.04 1016.88 1016.68 1016.46 1016.20 1015.92 1015.64 1015.36 1015.11 1014.90 1014.75 1014.65 1014.61 1014.62 1014.65 1014.70 1014.74 1014.77 1014.79 1014.80
1018.88 1018.49 1018.07 1017.65 1017.29 1017.00 1016.80 1016.72 1016.75 1016.86 1017.05 1017.27 1017.49 1017.70 1017.86 1017.97 1018.02 1018.03 1018.00 1017.95 1017.88 1017.80 1017.71 1017.60 1017.46 1017.29 1017.08 1016.83 1016.55 1016.25 1015.97 1015.70 1015.49 1015.32 1015.22 1015.18 1015.19 1015.24 1015.29 1015.35 1015.40 1015.42 1015.44
1018.85 1018.45 1018.02 1017.61 1017.24 1016.95 1016.77 1016.69 1016.73 1016.86 1017.07 1017.31 1017.56 1017.79 1017.99 1018.13 1018.23 1018.28 1018.30 1018.29 1018.27 1018.23 1018.18 1018.11 1018.00 1017.86 1017.67 1017.44 1017.17 1016.89 1016.61 1016.35 1016.13 1015.97 1015.87 1015.83 1015.85 1015.90 1015.97 1016.04 1016.10 1016.14 1016.15
1018.80 1018.40 1017.98 1017.57 1017.21 1016.93 1016.76 1016.69 1016.73 1016.87 1017.08 1017.34 1017.61 1017.86 1018.08 1018.26 1018.40 1018.49 1018.55 1018.58 1018.60 1018.61 1018.59 1018.56 1018.49 1018.37 1018.22 1018.02 1017.78 1017.53 1017.26 1017.02 1016.81 1016.66 1016.57 1016.53 1016.55 1016.61 1016.69 1016.77 1016.83 1016.87 1016.89
Thickness
5773 5777 5780 5783 5786 5789 5792 5794 5795 5797 5798 5794 5787 5782 5778 5777 5776 5774 5771 5767 5763 5761 5758 5755 5752 5749 5745 5743 5742 5740 5738 5736 5737 5733 5730 5733 5737 5738 5737 5737 5737 5737 5735
5754 5758 5764 5768 5770 5773 5777 5781 5785 5787 5789 5789 5786 5781 5777 5772 5769 5767 5764 5760 5756 5753 5751 5748 5745 5742 5739 5736 5735 5733 5730 5730 5731 5725 5719 5716 5720 5728 5734 5733 5731 5732 5731
5735 5740 5746 5751 5755 5758 5763 5768 5772 5777 5780 5782 5780 5776 5770 5764 5758 5756 5754 5753 5750 5746 5743 5741 5739 5736 5733 5729 5728 5728 5725 5722 5724 5725 5718 5710 5707 5715 5724 5729 5729 5728 5727
5721 5725 5731 5735 5740 5745 5751 5756 5760 5765 5770 5773 5770 5765 5759 5752 5751 5749 5746 5744 5742 5739 5737 5734 5732 5730 5728 5725 5724 5725 5724 5721 5718 5719 5720 5719 5716 5709 5708 5717 5723 5724 5723
5706 5711 5717 5722 5728 5732 5738 5743 5748 5752 5758 5761 5761 5758 5753 5747 5743 5741 5737 5734 5733 5731 5729 5727 5726 5724 5723 5721 5721 5721 5721 5720 5717 5715 5715 5714 5713 5712 5705 5702 5709 5714 5717
5691 5698 5705 5710 5714 5719 5724 5730 5734 5738 5744 5748 5749 5747 5743 5738 5733 5730 5726 5724 5723 5721 5721 5721 5719 5718 5717 5717 5717 5717 5717 5718 5716 5714 5713 5710 5707 5706 5703 5699 5699 5701 5707
5676 5682 5689 5695 5699 5704 5709 5714 5719 5723 5728 5733 5734 5734 5732 5729 5725 5721 5718 5717 5714 5712 5713 5713 5712 5712 5712 5713 5714 5714 5713 5714 5713 5712 5710 5710 5708 5707 5704 5699 5696 5696 5701
5664 5670 5677 5682 5686 5691 5695 5700 5704 5707 5712 5716 5718 5719 5718 5716 5713 5711 5710 5709 5708 5705 5706 5707 5707 5707 5707 5709 5710 5709 5709 5710 5710 5709 5708 5707 5706 5705 5702 5698 5693 5689 5691
5653 5660 5666 5671 5675 5679 5683 5688 5691 5694 5697 5701 5703 5704 5705 5704 5702 5701 5701 5701 5700 5700 5700 5702 5702 5702 5703 5704 5704 5703 5704 5705 5705 5705 5704 5703 5702 5702 5701 5698 5695 5688 5683
5645 5651 5656 5661 5665 5669 5673 5678 5681 5683 5686 5689 5691 5693 5694 5693 5693 5693 5693 5693 5693 5695 5695 5698 5699 5699 5698 5698 5698 5698 5699 5700 5700 5700 5698 5698 5698 5698 5697 5695 5693 5690 5685
5637 5642 5647 5651 5656 5661 5665 5669 5672 5675 5677 5680 5682 5683 5684 5685 5685 5685 5686 5687 5687 5688 5690 5693 5694 5695 5694 5694 5694 5694 5694 5694 5695 5695 5694 5693 5694 5693 5692 5690 5688 5687 5685
5633 5637 5641 5645 5649 5653 5658 5661 5664 5666 5668 5671 5673 5675 5676 5677 5677 5678 5680 5682 5683 5686 5688 5689 5690 5691 5692 5692 5691 5690 5690 5690 5689 5690 5689 5689 5690 5688 5687 5685 5684 5683 5683
5631 5634 5637 5640 5643 5647 5651 5655 5658 5660 5663 5665 5666 5667 5668 5669 5670 5673 5676 5679 5680 5683 5685 5686 5687 5687 5687 5687 5688 5687 5687 5687 5687 5686 5685 5685 5685 5682 5682 5681 5680 5680 5680
5632 5634 5636 5639 5643 5646 5649 5651 5654 5657 5659 5660 5661 5662 5664 5665 5667 5670 5673 5675 5677 5679 5681 5683 5683 5684 5684 5683 5683 5683 5683 5683 5683 5683 5683 5682 5680 5677 5677 5677 5676 5675 5674
5636 5638 5639 5642 5645 5647 5649 5650 5652 5654 5656 5656 5657 5658 5661 5663 5664 5666 5668 5670 5672 5674 5675 5677 5678 5678 5677 5675 5674 5676 5677 5677 5677 5678 5678 5676 5675 5673 5672 5671 5669 5669 5667
5639 5641 5644 5646 5648 5649 5650 5651 5652 5654 5655 5654 5653 5655 5657 5658 5659 5661 5662 5663 5664 5665 5667 5668 5668 5668 5667 5666 5666 5667 5668 5669 5670 5670 5671 5671 5670 5668 5667 5666 5665 5664 5661
5642 5643 5646 5648 5651 5652 5653 5652 5652 5652 5652 5651 5650 5651 5651 5651 5652 5653 5653 5654 5655 5656 5656 5657 5658 5657 5656 5658 5658 5659 5659 5661 5663 5665 5665 5667 5665 5663 5662 5660 5659 5658 5657
5644 5645 5647 5650 5652 5655 5655 5654 5652 5650 5648 5647 5646 5646 5645 5644 5644 5644 5644 5646 5647 5647 5647 5647 5647 5647 5648 5649 5650 5652 5653 5655 5657 5659 5660 5659 5657 5656 5655 5654 5654 5653 5651
5648 5649 5651 5653 5654 5655 5655 5653 5650 5648 5646 5644 5643 5641 5640 5639 5638 5637 5638 5638 5639 5639 5639 5639 5639 5639 5639 5640 5642 5644 5646 5648 5649 5651 5651 5651 5648 5647 5647 5648 5647 5646 5646
5653 5653 5654 5655 5654 5655 5655 5651 5648 5645 5643 5642 5641 5639 5637 5635 5633 5632 5632 5632 5632 5632 5632 5632 5632 5631 5631 5632 5634 5636 5638 5639 5641 5642 5642 5641 5640 5639 5639 5639 5639 5637 5638
5656 5656 5656 5655 5655 5656 5654 5650 5646 5644 5643 5642 5640 5637 5635 5633 5630 5628 5628 5628 5627 5627 5626 5626 5626 5625 5623 5624 5626 5627 5629 5630 5632 5633 5633 5631 5632 5632 5632 5632 5631 5630 5631
5659 5658 5657 5657 5659 5659 5656 5650 5646 5647 5646 5643 5640 5637 5634 5632 5630 5626 5625 5624 5623 5621 5620 5620 5619 5618 5617 5616 5618 5620 5622 5623 5624 5624 5624 5623 5624 5624 5624 5625 5625 5626 5626
5662 5661 5661 5661 5662 5661 5658 5653 5651 5651 5648 5645 5642 5638 5635 5631 5627 5624 5622 5619 5618 5616 5614 5613 5612 5611 5610 5609 5610 5613 5615 5616 5616 5615 5616 5616 5616 5617 5618 5618 5618 5619 5619
5665 5665 5664 5663 5664 5665 5663 5659 5657 5655 5653 5648 5644 5640 5635 5630 5626 5622 5619 5615 5612 5610 5610 5608 5606 5605 5603 5601 5603 5606 5608 5609 5610 5610 5610 5611 5611 5611 5611 5611 5612 5612 5611
5669 5668 5667 5666 5667 5669 5667 5665 5661 5659 5656 5651 5647 5642 5636 5631 5625 5620 5614 5612 5607 5605 5604 5603 5602 5600 5598 5596 5597 5598 5601 5603 5604 5605 5605 5604 5604 5603 5603 5603 5604 5604 5604
5671 5670 5669 5669 5671 5672 5671 5669 5666 5662 5658 5653 5648 5643 5638 5633 5629 5622 5616 5611 5609 5606 5605 5603 5601 5599 5596 5596 5596 5597 5598 5599 5601 5600 5597 5596 5596 5595 5595 5595 5595 5595 5596